User: anonymous   Login
Location: Newark
(6.1731°S, 35.7419°E)
Time: 09:35:38
(UTC+00:00)
Language:

Explorer 11/Cluster Stage 4 - Orbit

View from above orbital plane
View from above orbital plane
View from above satellite
View from above satellite

Ground track
Ground track

The orbit data is extracted from the following two-line orbital elements,

1   107U 61013A   20047.94836804  .00000236  00000-0  13868-4 0  9995
2   107  28.7862 147.6497 0547201  67.5349 298.2227 14.08899519948629
Epoch (UTC): 16 February 2020 22:45:38
Eccentricity: 0.0547201
inclination: 28.7862°
perigee height: 467 km
apogee height: 1259 km
right ascension of ascending node: 147.6497°
argument of perigee: 67.5349°
revolutions per day: 14.08899519
mean anomaly at epoch: 298.2227°
orbit number at epoch: 94862

The dashed part of the orbit path shows where the satellite is in the earth's shadow,  

DLR